Visibility
15.0 15.0 15.0 15.0 15.0 15.0 12.9 15.0 15.0 15.0 15.0 13.3 8.2 9.5 14.8 15.0 8.2 9.1 15.0 15.0 9.1 0.1 12.6 15.0 15.0 15.0 15.0 6.4 7.8 15.0 6.4 15.0 12.9 8.7 8.0 15.0 14.8 15.0 15.0 15.0 15.0 15.0 15.0 15.0 15.0 5.2 0.6 15.0 15.0 15.0 15.0 15.0 15.0 15.0
15.0 15.0 15.0 14.4 9.8 9.9 14.7 12.5 11.5 15.0 15.0 9.3 10.7 14.9 13.5 15.0 14.6 7.4 12.0 15.0 13.0 0.8 0.8 14.9 15.0 15.0 15.0 15.0 8.0 14.5 13.8 15.0 14.2 5.4 8.0 2.8 0.1 13.4 7.6 0.2 15.0 14.9 15.0 15.0 15.0 14.4 15.0 15.0 15.0 15.0 15.0 15.0 15.0 15.0
15.0 15.0 11.6 7.1 5.1 7.5 15.0 5.6 5.1 10.4 15.0 13.1 14.0 13.8 12.5 14.7 14.4 8.7 15.0 15.0 15.0 7.0 7.0 15.0 15.0 15.0 15.0 15.0 15.0 3.8 13.7 15.0 15.0 15.0 8.0 6.8 0.7 12.2 2.3 14.6 15.0 15.0 15.0 15.0 14.9 15.0 15.0 15.0 15.0 15.0 15.0 15.0 15.0 15.0
15.0 15.0 9.1 11.0 1.7 15.0 14.5 11.2 11.4 14.2 15.0 15.0 14.9 14.8 15.0 15.0 15.0 15.0 15.0 15.0 11.9 15.0 0.2 15.0 15.0 15.0 15.0 15.0 15.0 15.0 15.0 15.0 15.0 14.4 0.0 0.0 0.1 7.8 12.2 15.0 10.6 15.0 14.8 5.0 15.0 15.0 15.0 15.0 15.0 15.0 15.0 13.1 15.0 12.2
15.0 15.0 11.7 0.1 5.4 15.0 12.1 13.1 15.0 7.1 15.0 15.0 15.0 12.3 15.0 15.0 13.1 14.1 15.0 15.0 15.0 11.4 9.5 15.0 15.0 15.0 15.0 15.0 15.0 15.0 15.0 15.0 10.3 0.1 0.0 0.1 14.8 2.6 10.4 10.6 12.6 15.0 15.0 15.0 11.1 15.0 15.0 15.0 15.0 12.0 15.0 15.0 15.0 15.0
13.6 14.4 6.5 0.6 11.4 3.3 7.7 4.8 8.8 15.0 12.1 14.0 11.1 15.0 15.0 14.8 15.0 15.0 0.7 15.0 15.0 15.0 12.3 2.6 15.0 15.0 15.0 15.0 15.0 15.0 15.0 15.0 2.9 0.1 0.1 6.8 15.0 0.5 0.2 14.5 15.0 15.0 15.0 15.0 15.0 15.0 15.0 15.0 15.0 14.9 14.7 14.8 10.6 14.9
11.8 15.0 0.5 1.7 7.7 4.8 14.7 15.0 14.7 15.0 8.1 14.5 12.2 15.0 15.0 13.8 15.0 6.2 15.0 15.0 15.0 15.0 0.1 0.1 0.1 15.0 15.0 15.0 15.0 15.0 15.0 12.5 1.1 0.1 0.0 7.7 6.5 7.9 0.0 0.0 15.0 15.0 15.0 15.0 15.0 15.0 14.4 12.1 15.0 15.0 13.4 10.1 1.9 15.0
15.0 15.0 3.2 4.6 6.0 4.7 5.9 15.0 15.0 13.9 15.0 15.0 15.0 15.0 14.9 12.5 8.5 12.0 15.0 15.0 11.9 7.8 0.0 0.1 6.7 15.0 15.0 15.0 15.0 15.0 7.7 3.8 2.0 0.1 7.5 5.6 7.3 12.3 0.0 9.3 15.0 15.0 15.0 15.0 11.5 15.0 15.0 15.0 4.7 9.5 14.6 14.7 14.2 10.0
15.0 10.9 6.3 6.2 13.6 7.8 9.6 11.2 12.8 14.1 15.0 15.0 15.0 9.7 12.6 2.9 0.1 15.0 15.0 15.0 15.0 14.9 8.6 0.7 6.7 15.0 8.7 4.7 10.5 15.0 15.0 14.2 14.5 0.0 0.1 3.1 0.6 0.0 5.5 15.0 15.0 15.0 15.0 15.0 15.0 15.0 15.0 15.0 15.0 15.0 4.7 15.0 14.8 15.0
15.0 4.3 11.2 15.0 14.9 11.7 14.7 8.5 9.5 15.0 14.9 11.5 15.0 3.0 0.1 0.5 15.0 15.0 9.8 3.4 0.1 2.3 0.0 0.1 15.0 15.0 15.0 15.0 15.0 1.6 0.2 0.1 0.0 2.1 5.1 0.1 0.1 15.0 15.0 15.0 15.0 15.0 15.0 15.0 15.0 15.0 15.0 15.0 15.0 15.0 12.7 15.0 15.0 15.0
15.0 15.0 15.0 15.0 13.8 14.7 15.0 14.9 11.1 15.0 14.5 13.8 0.0 0.1 15.0 13.8 0.7 0.3 0.1 0.0 0.5 0.1 0.2 6.5 15.0 14.4 15.0 15.0 15.0 9.6 2.9 0.1 0.1 0.1 0.0 0.0 0.0 15.0 15.0 15.0 15.0 15.0 15.0 15.0 15.0 15.0 15.0 13.7 13.8 15.0 15.0 15.0 15.0 15.0
13.0 15.0 15.0 15.0 12.4 15.0 14.2 15.0 10.8 14.9 15.0 8.9 11.7 14.1 6.3 0.1 0.0 0.0 0.2 0.2 0.1 14.6 15.0 12.3 15.0 15.0 15.0 15.0 1.7 0.1 0.0 0.0 0.0 0.3 0.0 0.1 15.0 15.0 15.0 15.0 15.0 15.0 15.0 15.0 15.0 15.0 15.0 15.0 15.0 15.0 15.0 13.2 15.0 15.0
11.3 15.0 15.0 15.0 14.0 12.9 15.0 10.2 10.8 15.0 6.6 14.9 1.5 0.0 0.0 0.1 0.0 0.2 7.0 4.3 0.4 1.2 0.6 0.0 0.0 0.1 0.6 2.3 0.0 0.0 0.1 0.1 1.4 0.0 0.0 14.3 15.0 15.0 15.0 15.0 15.0 7.2 13.6 15.0 15.0 15.0 15.0 15.0 15.0 15.0 15.0 9.8 15.0 15.0
15.0 15.0 15.0 15.0 15.0 15.0 14.4 9.3 10.8 7.5 0.0 0.2 0.3 0.0 0.5 0.4 10.4 15.0 15.0 15.0 4.7 14.3 14.0 2.0 0.1 0.0 0.1 0.0 0.0 0.0 0.1 0.0 0.0 0.1 1.8 15.0 15.0 15.0 15.0 15.0 15.0 14.7 15.0 15.0 15.0 15.0 15.0 11.6 10.0 15.0 10.5 10.1 5.1 3.7
15.0 15.0 15.0 15.0 15.0 15.0 15.0 14.4 12.6 3.4 0.0 0.1 0.1 0.1 5.5 15.0 15.0 15.0 14.8 15.0 5.5 14.6 0.5 0.2 0.0 0.1 0.0 0.0 0.0 0.0 0.0 0.0 6.8 6.2 15.0 15.0 15.0 14.3 15.0 15.0 11.7 11.4 15.0 15.0 15.0 15.0 4.3 8.9 5.6 5.8 4.6 7.0 12.1 14.6
15.0 8.0 15.0 15.0 15.0 15.0 12.1 12.4 6.2 0.0 0.0 0.0 0.0 0.1 15.0 9.5 15.0 15.0 15.0 15.0 15.0 14.7 15.0 0.1 0.0 0.0 0.0 0.0 0.0 0.1 0.5 12.9 15.0 15.0 15.0 15.0 15.0 5.4 6.9 11.8 14.1 10.0 3.5 6.4 8.6 5.8 4.6 5.5 7.4 14.3 13.2 15.0 15.0 15.0
11.7 0.0 15.0 15.0 15.0 15.0 10.6 0.1 0.0 0.0 0.0 0.1 8.6 15.0 15.0 15.0 15.0 3.9 14.2 15.0 14.7 4.7 15.0 0.4 0.3 0.1 0.0 0.1 0.5 7.1 15.0 15.0 15.0 15.0 15.0 15.0 15.0 15.0 5.6 4.7 9.3 8.8 10.1 13.4 15.0 15.0 11.5 14.4 15.0 15.0 15.0 15.0 15.0 15.0
0.0 2.5 11.4 15.0 9.2 7.1 0.1 0.0 0.0 0.1 0.1 12.8 1.4 15.0 15.0 15.0 15.0 15.0 15.0 13.2 4.6 15.0 0.1 1.6 0.0 0.5 0.3 0.1 5.2 8.7 15.0 15.0 15.0 15.0 15.0 15.0 15.0 15.0 15.0 15.0 15.0 15.0 15.0 15.0 15.0 15.0 15.0 15.0 15.0 15.0 15.0 15.0 15.0 15.0
2.4 15.0 12.0 12.5 1.5 0.0 0.0 0.0 0.0 0.1 5.6 15.0 15.0 15.0 15.0 15.0 15.0 15.0 15.0 15.0 15.0 15.0 0.0 0.0 0.0 0.1 0.1 0.1 12.7 14.8 15.0 15.0 15.0 15.0 14.6 15.0 15.0 15.0 15.0 15.0 15.0 15.0 15.0 15.0 15.0 15.0 15.0 15.0 15.0 15.0 15.0 15.0 15.0 15.0
15.0 15.0 14.7 14.2 1.9 0.0 0.1 0.0 0.1 8.9 10.7 12.3 15.0 5.1 15.0 15.0 15.0 15.0 15.0 15.0 2.6 0.2 0.0 0.0 0.1 15.0 1.9 8.0 15.0 15.0 15.0 15.0 15.0 15.0 15.0 15.0 15.0 15.0 15.0 15.0 15.0 15.0 15.0 15.0 15.0 15.0 15.0 15.0 15.0 15.0 15.0 15.0 15.0 15.0
15.0 15.0 6.9 6.6 0.0 0.0 1.4 0.1 7.1 15.0 15.0 15.0 13.2 15.0 14.8 15.0 0.3 0.8 3.2 15.0 0.2 0.0 3.3 15.0 15.0 15.0 15.0 4.8 15.0 15.0 15.0 15.0 15.0 15.0 15.0 15.0 15.0 15.0 15.0 15.0 15.0 15.0 15.0 15.0 15.0 15.0 15.0 15.0 15.0 15.0 15.0 15.0 15.0 15.0
0.1 11.8 0.0 0.0 0.0 0.0 0.0 10.4 15.0 15.0 15.0 15.0 5.7 13.0 15.0 15.0 15.0 15.0 15.0 0.1 11.5 15.0 15.0 15.0 15.0 15.0 15.0 15.0 15.0 15.0 15.0 15.0 15.0 15.0 15.0 15.0 15.0 15.0 15.0 15.0 15.0 15.0 15.0 15.0 15.0 15.0 15.0 15.0 15.0 15.0 4.2 0.2 11.4 6.9
5.0 0.0 0.0 0.0 0.0 0.0 0.5 0.1 0.1 2.4 4.2 11.5 10.4 14.6 15.0 15.0 15.0 8.3 0.1 8.3 15.0 15.0 15.0 15.0 15.0 14.9 10.3 15.0 15.0 15.0 15.0 15.0 15.0 15.0 15.0 15.0 15.0 15.0 15.0 15.0 15.0 15.0 15.0 15.0 15.0 15.0 15.0 15.0 14.0 0.3 0.4 1.2 0.1 0.1
0.2 0.0 0.0 0.0 0.1 0.1 0.0 0.1 0.5 4.5 7.4 15.0 15.0 15.0 15.0 15.0 8.1 7.6 2.5 15.0 15.0 15.0 15.0 15.0 10.7 6.4 15.0 15.0 15.0 15.0 15.0 15.0 15.0 15.0 15.0 15.0 15.0 15.0 15.0 15.0 15.0 15.0 15.0 15.0 15.0 15.0 15.0 0.2 0.6 0.3 0.3 0.2 0.1 3.1
0.0 0.0 0.1 0.1 0.8 6.0 0.9 1.5 15.0 14.5 10.5 15.0 8.2 13.6 15.0 1.0 0.6 2.0 15.0 15.0 0.1 0.1 0.3 14.9 14.9 15.0 15.0 15.0 15.0 15.0 15.0 15.0 15.0 15.0 15.0 15.0 15.0 15.0 15.0 15.0 15.0 15.0 15.0 15.0 15.0 0.1 0.2 0.2 0.9 1.3 0.2 5.4 0.4 0.1
0.1 1.0 5.7 15.0 7.9 13.0 2.5 2.2 9.3 9.6 15.0 14.7 15.0 11.8 13.7 2.4 1.4 1.3 14.4 0.0 0.0 0.0 0.0 0.2 14.9 15.0 15.0 15.0 15.0 15.0 15.0 15.0 15.0 15.0 0.2 15.0 15.0 15.0 15.0 15.0 15.0 0.2 15.0 15.0 4.8 0.1 0.2 0.4 10.6 15.0 0.4 14.0 15.0 0.1
0.2 9.9 12.1 15.0 15.0 15.0 5.9 6.4 15.0 15.0 0.3 0.2 8.1 0.4 0.2 0.1 9.0 15.0 0.0 0.0 0.0 0.0 0.0 1.9 15.0 15.0 15.0 0.4 0.2 0.7 15.0 15.0 14.7 0.2 0.4 6.0 6.2 7.0 15.0 15.0 6.4 0.2 15.0 8.0 0.6 0.1 0.1 0.2 0.2 0.1 0.1 0.0 0.0 0.0
14.6 15.0 2.3 13.4 1.2 15.0 13.7 12.7 14.2 13.9 15.0 15.0 1.9 0.1 0.2 13.7 15.0 0.1 0.0 0.0 0.0 0.0 0.6 3.4 0.8 2.4 0.2 0.1 0.1 0.1 0.1 0.2 0.3 0.4 0.7 0.1 0.2 2.2 0.9 5.4 15.0 15.0 13.2 0.4 0.1 0.0 0.0 0.0 0.0 0.1 0.0 0.0 0.0 0.0
0.1 9.9 5.5 0.4 11.2 15.0 15.0 15.0 15.0 15.0 15.0 15.0 15.0 0.4 1.1 0.5 1.8 0.6 0.1 0.0 0.0 2.2 9.8 0.1 0.1 3.4 4.5 15.0 13.7 13.5 15.0 15.0 15.0 15.0 0.4 0.0 0.0 0.0 13.8 15.0 15.0 15.0 13.3 13.1 13.4 2.1 0.1 0.1 0.5 0.2 0.1 0.0 0.0 0.0
0.4 15.0 11.9 1.1 11.3 12.2 15.0 15.0 11.0 7.7 15.0 15.0 15.0 15.0 12.4 12.7 3.3 0.1 0.0 0.1 0.3 0.1 0.7 1.7 12.9 15.0 15.0 13.7 0.2 0.1 0.1 0.2 13.2 9.4 3.6 0.2 0.1 0.2 15.0 15.0 15.0 10.0 2.6 0.6 9.2 9.3 1.0 0.0 0.0 0.0 0.0 0.0 0.0 0.0
2.3 15.0 14.4 14.4 0.1 8.2 15.0 2.5 13.5 15.0 10.9 8.6 15.0 15.0 10.7 9.0 0.2 0.1 0.1 0.1 0.2 0.1 12.0 5.2 3.8 0.3 15.0 15.0 0.3 0.1 0.0 0.1 0.5 0.4 0.4 0.3 9.7 3.1 12.8 15.0 15.0 15.0 10.2 0.5 5.4 0.3 0.2 0.0 0.0 0.0 0.0 0.1 0.1 0.1
7.8 1.2 11.5 6.8 0.2 0.2 9.6 5.4 2.1 1.9 0.7 0.6 0.1 0.1 0.2 0.5 0.1 0.1 0.1 0.0 0.1 0.1 0.2 0.1 0.0 0.0 0.1 0.5 2.3 15.0 14.0 5.0 12.9 15.0 15.0 14.9 9.5 11.7 15.0 14.5 15.0 15.0 15.0 15.0 15.0 15.0 15.0 15.0 1.3 0.1 0.1 0.1 0.7 1.4
0.4 0.1 0.1 0.1 0.1 0.3 0.8 1.5 0.4 0.5 0.6 0.1 0.1 0.2 0.4 0.1 0.1 0.1 0.0 0.0 0.2 0.8 0.3 0.1 0.1 0.2 1.3 12.2 5.5 2.9 5.5 6.8 15.0 15.0 15.0 15.0 15.0 15.0 15.0 15.0 15.0 15.0 15.0 15.0 15.0 15.0 15.0 15.0 9.7 2.1 1.6 1.1 0.7 0.5